User: anonymous   Login
Location: Unspecified
(0.0000°N, 0.0000°E)
Time: 22:31:25
(UTC+00:00)
Language:

Tiungsat 1 - Orbit

View from above orbital plane
View from above orbital plane
View from above satellite
View from above satellite

Ground track
Ground track

The orbit data is extracted from the following two-line orbital elements,

1 26548U 00057D   18110.20828700  .00000045  00000-0  20897-4 0  9994
2 26548  64.5496 121.7168 0003932 292.0613  68.0079 14.89169571951812
Epoch (UTC): 20 April 2018 04:59:55
Eccentricity: 0.0003932
inclination: 64.5496°
perigee height: 598 km
apogee height: 603 km
right ascension of ascending node: 121.7168°
argument of perigee: 292.0613°
revolutions per day: 14.89169571
mean anomaly at epoch: 68.0079°
orbit number at epoch: 95181

The dashed part of the orbit path shows where the satellite is in the earth's shadow,  

DLR